User: anonymous   Login
Location: Star Hoppers Observatory
(42.7905°N, 83.6127°W)
Time: 12:30:33
(UTC-05:00)
Language:

NOSS 3-1 (A) - Orbit

View from above orbital plane
View from above orbital plane
View from above satellite
View from above satellite

Ground track
Ground track

The orbit data is extracted from the following two-line orbital elements,

1 26905U 01040A   14350.70651803 0.00000000  00000-0  00000-0 0    03
2 26905  63.4260 204.3040 0289000 357.2847   2.7153 13.40705825    06
Epoch (UTC): 16 December 2014 16:57:23
Eccentricity: 0.0289000
inclination: 63.4260°
perigee height: 890 km
apogee height: 1323 km
right ascension of ascending node: 204.3040°
argument of perigee: 357.2847°
revolutions per day: 13.40705825
mean anomaly at epoch: 2.7153°
orbit number at epoch: 0

The dashed part of the orbit path shows where the satellite is in the earth's shadow,  

DLR